星链-4687 (STARLINK-4687 )

导读 | 星芒AI

STARLINK-4687 是 SpaceX Starlink 项目中的一颗低轨通信卫星,属于第 20 批组网发射的星群。该卫星部署在约 550 公里的轨道高度,旨在为全球用户提供高速互联网服务。Starlink 卫星采用先进推进系统和激光通信技术,具备自动避障能力,以减少与空间碎片和他国卫星的碰撞风险。STARLINK-4687 的运行有助于提升 Starlink 网络的覆盖密度和连接稳定性,支持偏远地区的宽带接入。

基本信息
目录编号:
53784
目录名称:
STARLINK-4687
国际标识:
2022-111M
轨道中心:
EARTH
卫星名称:
星链-4687
卫星全名:
星链-4687 (STARLINK-4687 )
卫星状态:
在轨 (已飞行1150 天)
发射日期:
2022-09-11 UTC
国别 :
美国 (US)
星等 :
--
轨道信息
数据来源 国际轨道数据 AOE轨道数据
星历时间 2025-11-04T19:35:12+0800
6小时前
查看轨道信息
2025-11-04T08:00:00+0800
18小时前
查看轨道信息
半长轴 6917.867km 6917.867km
偏心率 0.0001295 0.0001856
轨道倾角 53.215° 53.216°
近地点辐角 93.405° 104.860°
升交点赤经 116.234° 118.406°
平近点角 266.709° 151.476°
近地点 538.836km 538.448km
远地点 540.628km 541.016km
周期 95.437分钟 95.437分钟
每日圈数 15.088446 15.088444
详细信息
固有亮度:
5
最大亮度:
2.5
卫星平台:
Starlink v1.5
覆盖范围:
全球
运营商:
太空探索技术公司
运营商所在国:
美国
制造商(研发单位):
太空探索技术公司
制造商所在国:
美国
使用方式:
暂无
卫星简介
星链(Starlink)计划是由太空探索技术公司(SpaceX)提出的一个巨型低轨卫星互联网星座项目,计划在2019年至2024年间在太空搭建由约1.2万颗卫星组成的“星链”网络,其中1584颗将部署在地球上空550千米处的近地轨道,并从2020年开始工作。该卫星仍在工作。
2D轨道图
3D轨道图
轨道高度分析图
轨道倾角分析图
轨道综合分析图
查看轨道综合分析图